Location: Cactus School
(34.5700°N, 118.0931°W)
Time: 07:58:45
(UTC-07:00)

Vanguard 1 Rocket - Pass Details

Date: 20 April 2024
Orbit: 650 x 4220 km, 34.3° (Epoch: 22 May)

Event Time Altitude Azimuth Distance (km) Brightness Sun altitude
Rises 21:05:44 0° 271° (W) 3,262 11.3 -19.2°
Reaches altitude 10° 21:07:42 10° 271° (W) 2,507 10.5 -19.5°
Maximum altitude 21:13:30 89° 182° (S) 1,216 7.9 -20.5°
Enters shadow 21:19:35 26° 94° (E) 2,862 9.4 -21.6°
